This is the latest recevied weather packets stored in our database for station/object KF0JHJ. If no packets are shown the sender has not sent any weather packets the latest 10 day(s).
| Time | Temp. | Humidity | Pressure | Rain* | Wind** | Luminosity | Snow |
|---|---|---|---|---|---|---|---|
| 1777940692 | 10.56° C | 47% | 1002.8 hPa | - | - | 29 W/m² | - |
| 1777940391 | 10.56° C | 49% | 1002.8 hPa | - | - | 33 W/m² | - |
| 1777940088 | 10.56° C | 47% | 1002.3 hPa | - | - | 48 W/m² | - |
| 1777939785 | 10.56° C | 47% | 1002.4 hPa | - | - | 45 W/m² | - |
| 1777939483 | 11.11° C | 46% | 1002.6 hPa | - | - | 46 W/m² | - |
| 1777939179 | 11.11° C | 45% | 1002.4 hPa | - | - | 60 W/m² | - |
| 1777938877 | 11.11° C | 46% | 1002.2 hPa | - | - | 37 W/m² | - |
| 1777938572 | 11.11° C | 44% | 1002.7 hPa | - | - | 55 W/m² | - |
| 1777938270 | 11.11° C | 46% | 1002.4 hPa | - | - | 78 W/m² | - |
| 1777937967 | 11.11° C | 45% | 1002.3 hPa | - | - | 70 W/m² | - |
| 1777937662 | 11.11° C | 45% | 1002.3 hPa | - | - | 53 W/m² | - |
| 1777937359 | 11.67° C | 46% | 1002.1 hPa | - | - | 57 W/m² | - |
| 1777937056 | 11.67° C | 44% | 1002.2 hPa | - | - | 72 W/m² | - |
| 1777936754 | 11.67° C | 44% | 1002.3 hPa | - | - | 79 W/m² | - |
| 1777936450 | 11.67° C | 44% | 1002 hPa | - | - | 83 W/m² | - |
| 1777936146 | 12.22° C | 44% | 1002.1 hPa | - | - | 73 W/m² | - |
| 1777935844 | 12.22° C | 44% | 1001.9 hPa | - | - | 86 W/m² | - |
| 1777935542 | 12.78° C | 43% | 1002.1 hPa | - | - | 103 W/m² | - |
| 1777935238 | 12.78° C | 43% | 1001.8 hPa | - | - | 300 W/m² | - |
| 1777934936 | 12.22° C | 45% | 1001.8 hPa | - | - | 256 W/m² | - |
| 1777934632 | 12.22° C | 45% | 1001.8 hPa | - | - | 175 W/m² | - |
| 1777934329 | 12.22° C | 46% | 1001.6 hPa | - | - | 121 W/m² | - |
| 1777934025 | 12.22° C | 45% | 1001.6 hPa | - | - | 99 W/m² | - |
| 1777933721 | 12.78° C | 45% | 1001.3 hPa | - | - | 117 W/m² | - |
| 1777933418 | 12.78° C | 43% | 1001.2 hPa | - | - | 194 W/m² | - |
* Rain since midnight (hover to see other rain measurements)
** Current wind speed in m/s (hover to see current wind gust speed)